Location: Bacea
(45.9500°N, 22.6667°E)
Time: 08:38:21
(UTC+00:00)

ARGOS - Pass Details

Date: 16 October 2021
Orbit: 819 x 835 km, 98.4° (Epoch: 07 December)

Event Time Altitude Azimuth Distance (km) Brightness Sun altitude
Rises 17:27:44 0° 183° (S) 3,349 6.3 -19.2°
Reaches altitude 10° 17:30:11 10° 189° (S) 2,423 5.6 -19.6°
Maximum altitude 17:35:18 45° 262° (W) 1,126 4.3 -20.5°
Drops below altitude 10° 17:40:29 10° 334° (NNW) 2,449 6.0 -21.4°
Sets 17:42:59 0° 341° (NNW) 3,390 6.7 -21.8°
